Location: Newark
(20.0000°S, 47.0000°E)
Time: 05:28:17
(UTC+00:00)

OTV 5 (USA 277) - Pass Details

Date: 30 October 2019
Orbit: 310 x 324 km, 54.5° (Epoch: 17 October)

Event Time Altitude Azimuth Distance (km) Brightness Sun altitude
Exits shadow 01:31:33 12° 320° (NW) 1,100 ? -9.9°
Maximum altitude 01:33:57 74° 235° (SW) 333 ? -9.4°
Drops below altitude 10° 01:36:40 10° 148° (SSE) 1,223 ? -8.7°
Sets 01:38:38 0° 146° (SE) 2,056 ? -8.3°
